Voltar ao catálogo

COSMOS 2491 DEB *

AtivoPO
NORAD 45128·DEBRIS·🇷🇺 Russia

Lançado Dec 25, 2013 de Plesetsk Cosmodrome

Loading…

Próximas Passagens (próximas 24 horas)

TLE

AtualizadoSource: Space-Track

Época: Sep 14, 2026, 07:51 UTC

1 45128U 13076AA  26257.32743412  .00004180  00000-0  12291-2 0  9995
2 45128  81.2031 266.9837 0021409 339.4723  20.5604 14.43490929 74907

Acompanhe COSMOS 2491 DEB * em tempo real com AllMySat

Download on the App Store